Powrót do katalogu

STARLINK-4545

AktywnyŁącznośćVLEO
NORAD 53421·PAYLOAD·🇺🇸 United States

Wystrzelony Aug 10, 2022 z Cape Canaveral Space Force Station

Loading…

Następne Przeloty (najbliższe 24 godziny)

TLE

ŚwieżeSource: CelesTrak SupGP

Epoka: Sep 14, 2026, 20:50 UTC

1 53421C 22097AK  26257.86854167 -.00040451  00000+0 -13011-2 0  2572
2 53421  53.1596 333.0545 0001149  74.5485 309.0212 15.31715681    13

Śledź STARLINK-4545 w czasie rzeczywistym z AllMySat

Download on the App Store